Simultaneous Nadir Overpasses (SNOs) Predictions

Prediction of SNOs between NOAA-20 and METOP-C Satellite Orbit:

Table of predicted SNOs for the next 14.0 days since TLE Epoch: 6/10/2023
Index Date (NOAA-20) Time (NOAA-20) Lat,Lon (NOAA-20) SZA (NOAA-20 ) Date (METOP-C) Time (METOP-C) Lat,Lon (METOP-C) SZA (METOP-C ) Distance(km) Time Diff (sec)
1 06/20/2023 00:39:14 73.60, 160.48 50.38 06/20/2023 00:40:20 73.52, 163.34 50.15 90.22 66
2 06/20/2023 01:29:57 -73.55, -32.08 129.68 06/20/2023 01:31:04 -73.47, -29.48 129.91 82.72 67
3 06/20/2023 02:20:37 73.25, 135.89 49.99 06/20/2023 02:21:48 73.20, 137.26 49.85 44.43 71
4 06/20/2023 03:11:20 -73.20, -56.68 130.07 06/20/2023 03:12:31 -73.19, -55.43 130.16 40.07 71
5 06/20/2023 04:02:01 72.95, 111.17 49.66 06/20/2023 04:03:15 72.92, 111.33 49.60 6.51 74
6 06/20/2023 04:52:44 -72.90, -81.41 130.40 06/20/2023 04:53:58 -72.91, -81.37 130.41 1.65 74
7 06/20/2023 05:43:29 72.91, 85.89 49.61 06/20/2023 05:44:36 72.89, 85.93 49.58 2.06 67
8 06/20/2023 06:34:13 -72.91,-106.79 130.39 06/20/2023 06:35:19 -72.89,-106.76 130.43 2.48 66
9 06/20/2023 07:24:58 72.86, 60.62 49.56 06/20/2023 07:25:58 72.86, 60.53 49.55 2.89 60
10 06/20/2023 08:15:42 -72.86,-132.06 130.45 06/20/2023 08:16:41 -72.86,-132.15 130.45 3.02 59
11 06/20/2023 09:06:28 72.86, 35.24 49.56 06/20/2023 09:07:19 72.89, 35.25 49.58 2.99 51
12 06/20/2023 09:57:12 -72.86,-157.44 130.44 06/20/2023 09:58:02 -72.88,-157.44 130.43 2.44 50
13 06/20/2023 10:47:58 72.86, 9.86 49.56 06/20/2023 10:48:41 72.86, 9.85 49.55 0.40 43
14 06/20/2023 11:38:42 -72.86, 177.18 130.44 06/20/2023 11:39:24 -72.86, 177.16 130.46 0.92 42
15 06/20/2023 12:29:28 72.87, -15.52 49.57 06/20/2023 12:30:02 72.89, -15.44 49.57 3.44 34
16 06/20/2023 13:20:12 -72.87, 151.79 130.44 06/20/2023 13:20:45 -72.88, 151.87 130.44 3.01 33
17 06/20/2023 14:10:58 72.87, -40.90 49.57 06/20/2023 14:11:24 72.86, -40.83 49.55 2.61 26
18 06/20/2023 15:01:42 -72.87, 126.41 130.43 06/20/2023 15:02:07 -72.85, 126.48 130.46 2.70 25
19 06/20/2023 15:52:27 72.82, -66.18 49.52 06/20/2023 15:52:46 72.83, -66.23 49.53 1.98 19
20 06/20/2023 16:43:11 -72.82, 101.14 130.49 06/20/2023 16:43:29 -72.83, 101.08 130.48 1.92 18
21 06/20/2023 17:33:57 72.83, -91.56 49.52 06/20/2023 17:34:08 72.81, -91.62 49.50 3.05 11
22 06/20/2023 18:24:41 -72.83, 75.76 130.48 06/20/2023 18:24:50 -72.85, 75.80 130.46 3.30 9
23 06/20/2023 19:15:27 72.83,-116.94 49.52 06/20/2023 19:15:29 72.83,-116.91 49.52 0.93 2
24 06/20/2023 20:06:11 -72.83, 50.38 130.48 06/20/2023 20:06:12 -72.83, 50.40 130.48 0.81 1
25 06/20/2023 20:56:57 72.83,-142.32 49.53 06/20/2023 20:56:51 72.80,-142.31 49.50 3.19 6
26 06/20/2023 21:47:41 -72.83, 25.00 130.48 06/20/2023 21:47:34 -72.80, 25.01 130.51 3.46 7
27 06/20/2023 22:38:26 72.78,-167.60 49.47 06/20/2023 22:38:13 72.78,-167.70 49.48 3.56 13
28 06/20/2023 23:29:11 -72.83, -0.38 130.48 06/20/2023 23:28:55 -72.82, -0.28 130.49 3.53 16
29 06/21/2023 00:19:56 72.79, 167.02 49.48 06/21/2023 00:19:34 72.80, 167.01 49.50 1.59 22
30 06/21/2023 01:10:40 -72.79, -25.66 130.53 06/21/2023 01:10:17 -72.80, -25.68 130.51 1.40 23
31 06/21/2023 02:01:26 72.79, 141.64 49.48 06/21/2023 02:00:56 72.77, 141.61 49.47 1.99 30
32 06/21/2023 02:52:10 -72.79, -51.04 130.52 06/21/2023 02:51:39 -72.77, -51.07 130.53 2.20 31
33 06/21/2023 03:42:56 72.79, 116.26 49.48 06/21/2023 03:42:17 72.80, 116.32 49.49 2.20 39
34 06/21/2023 04:33:40 -72.79, -76.42 130.52 06/21/2023 04:33:00 -72.80, -76.36 130.51 2.08 40
35 06/21/2023 05:24:26 72.80, 90.88 49.49 06/21/2023 05:23:39 72.77, 90.93 49.47 3.21 47
36 06/21/2023 06:15:10 -72.80,-101.80 130.52 06/21/2023 06:14:22 -72.77,-101.75 130.54 3.28 48
37 06/21/2023 07:05:55 72.75, 65.60 49.44 06/21/2023 07:05:01 72.75, 65.53 49.45 2.28 54
38 06/21/2023 07:56:39 -72.75,-127.08 130.57 06/21/2023 07:55:44 -72.74,-127.15 130.56 2.34 55
39 06/21/2023 08:47:25 72.75, 40.22 49.44 06/21/2023 08:46:22 72.77, 40.25 49.47 2.09 63
40 06/21/2023 09:38:09 -72.75,-152.46 130.57 06/21/2023 09:37:05 -72.77,-152.44 130.54 1.99 64
41 06/21/2023 10:28:55 72.76, 14.84 49.44 06/21/2023 10:27:44 72.74, 14.85 49.45 1.42 71
42 06/21/2023 11:19:39 -72.75,-177.84 130.56 06/21/2023 11:18:27 -72.74,-177.83 130.56 1.44 72
43 06/21/2023 12:10:22 72.61, -10.23 49.28 06/21/2023 12:09:09 72.56, -10.86 49.29 21.43 73
44 06/21/2023 13:01:05 -72.55, 157.19 130.78 06/21/2023 12:59:52 -72.56, 156.46 130.72 24.29 73
45 06/21/2023 13:51:45 72.25, -34.90 48.89 06/21/2023 13:50:36 72.28, -36.76 49.04 63.02 69
46 06/21/2023 14:42:29 -72.25, 132.42 131.11 06/21/2023 14:41:20 -72.23, 130.47 131.01 66.16 69



Historial Predications of SNOs between NOAA-20 and METOP-C
